Weather History for Sheboygan, WI

Change the Weather History Date:

Thursday, November 7, 2013

  Actual Average Record
Temperature  
Mean Temperature 32 °F -  
Max Temperature 39 °F 48 °F 62 °F (1949)
Min Temperature 25 °F 33 °F 4 °F (1991)
Degree Days  
Heating Degree Days 33    
Moisture  
Dew Point 26 °F    
Average Humidity 75    
Maximum Humidity 92    
Minimum Humidity 60    
Precipitation  
Precipitation 0.00 in - - ()
Sea Level Pressure  
Sea Level Pressure 30.17 in    
Wind  
Wind Speed 8 mph (WNW)    
Max Wind Speed 15 mph    
Max Gust Speed 21 mph    
Visibility 10 miles    
Events      
Averages and records for this station are not official NWS values.
T = Trace of Precipitation, MM = Missing Value Source: NWS Daily Summary

Daily Weather History Graph

Daily Weather History Graph

Search for Another Location

Airport:

Trip Planner

Search our weather history database for the weather conditions in past years. The results will help you decide how hot, cold, wet, or windy it might be!

Date:

Astronomy

Nov. 07, 2013 Rise Set
Actual Time 6:35 AM CST 4:34 PM CST
Civil Twilight 6:05 AM CST 5:04 PM CST
Nautical Twilight 5:30 AM CST 5:38 PM CST
Astronomical Twilight 4:57 AM CST 6:12 PM CST
Moon 10:45 AM CST (11/7) 8:44 PM CST (11/7)
Length of Visible Light 10h 59m
Length of Day
9h 58m
Waxing Crescent, 23% of the Moon is Illuminated
Nov 7
Waxing Crescent
Nov 9
First Quarter
Nov 17
Full
Nov 25
Last Quarter
Dec 2
New

Hourly Weather History & Observations

Time (CST) Temp. Windchill Dew Point Humidity Pressure Visibility Wind Dir Wind Speed Gust Speed Precip Events Conditions
12:53 AM 30.9 °F 25.2 °F 27.0 °F 85% 30.13 in 10.0 mi WNW 5.8 mph - N/A   Clear
1:53 AM 30.9 °F 23.5 °F 26.1 °F 82% 30.16 in 10.0 mi WNW 8.1 mph - N/A   Clear
2:53 AM 30.9 °F 22.8 °F 25.0 °F 79% 30.15 in 10.0 mi WNW 9.2 mph - N/A   Clear
3:53 AM 30.0 °F 24.1 °F 24.1 °F 79% 30.16 in 10.0 mi West 5.8 mph - N/A   Clear
4:53 AM 28.9 °F 22.8 °F 23.0 °F 78% 30.17 in 10.0 mi West 5.8 mph - N/A   Clear
5:53 AM 25.0 °F 18.1 °F 23.0 °F 92% 30.18 in 10.0 mi WSW 5.8 mph - N/A   Clear
6:53 AM 26.1 °F 19.4 °F 24.1 °F 92% 30.19 in 10.0 mi SW 5.8 mph - N/A   Clear
7:53 AM 30.0 °F 24.1 °F 28.0 °F 92% 30.19 in 10.0 mi SSW 5.8 mph - N/A   Partly Cloudy
8:53 AM 34.0 °F - 28.0 °F 79% 30.19 in 10.0 mi North - - N/A   Clear
9:53 AM 35.1 °F 27.4 °F 28.0 °F 76% 30.19 in 10.0 mi WNW 10.4 mph - N/A   Overcast
10:53 AM 37.0 °F 29.8 °F 28.9 °F 73% 30.19 in 10.0 mi WNW 10.4 mph - N/A   Overcast
11:53 AM 37.9 °F 30.0 °F 28.0 °F 68% 30.18 in 10.0 mi West 12.7 mph - N/A   Overcast
12:53 PM 39.9 °F 31.8 °F 27.0 °F 60% 30.16 in 10.0 mi West 15.0 mph - N/A   Scattered Clouds
1:53 PM 39.0 °F 31.4 °F 26.1 °F 60% 30.14 in 10.0 mi WNW 12.7 mph - N/A   Scattered Clouds
2:53 PM 39.9 °F 33.4 °F 27.0 °F 60% 30.14 in 10.0 mi WNW 10.4 mph - N/A   Partly Cloudy
3:53 PM 37.9 °F 32.1 °F 26.1 °F 62% 30.14 in 10.0 mi WNW 8.1 mph - N/A   Scattered Clouds
4:53 PM 35.1 °F 30.1 °F 26.1 °F 70% 30.16 in 10.0 mi WNW 5.8 mph - N/A   Scattered Clouds
5:53 PM 37.0 °F 30.4 °F 26.1 °F 65% 30.18 in 10.0 mi WNW 9.2 mph - N/A   Overcast
6:53 PM 37.0 °F 29.3 °F 28.0 °F 70% 30.19 in 10.0 mi WNW 11.5 mph 20.7 mph N/A   Overcast
7:53 PM 35.1 °F 27.4 °F 27.0 °F 72% 30.18 in 10.0 mi WNW 10.4 mph - 0.00 in   Overcast
8:53 PM 33.1 °F 26.1 °F 25.0 °F 72% 30.19 in 10.0 mi WNW 8.1 mph 17.3 mph N/A   Clear
9:53 PM 32.0 °F 24.2 °F 25.0 °F 75% 30.20 in 10.0 mi NW 9.2 mph - N/A   Clear
10:53 PM 30.9 °F 24.3 °F 25.0 °F 79% 30.20 in 10.0 mi WNW 6.9 mph - N/A   Clear
11:53 PM 30.0 °F 23.2 °F 26.1 °F 85% 30.22 in 10.0 mi West 6.9 mph - N/A   Clear